Regional Weather Roundup
Issued by NWS

Home | Current Version | Previous Version | Graphics & Text | Print | Product List | Glossary On
Versions: 1 2 3 4 5 6 7 8 9 10 11 12 13 14 15 16 17 18 19 20 21 22 23 24 25 26 27 28 29 30 31 32 33 34 35 36 37 38 39 40 41 42 43 44 45 46 47 48 49 50
000
ASUS43 KMKX 011211
RWRWI

WISCONSIN REGIONAL WEATHER ROUNDUP
NATIONAL WEATHER SERVICE MILWAUKEE/SULLIVAN WI
700 AM CDT SUN MAY 01 2016

NOTE: "FAIR" INDICATES FEW OR NO CLOUDS BELOW 12,000 FEET WITH NO
SIGNIFICANT WEATHER AND/OR OBSTRUCTIONS TO VISIBILITY.

WIZ001-002-006>008-014>016-023>028-011300-
NORTHWEST WISCONSIN

CITY           SKY/WX    TMP DP  RH WIND       PRES   REMARKS
SUPERIOR ARPT  PTSUNNY   39  31  73 E6        30.25R WCI  35
6HR MIN TEMP:  36; 6HR MAX TEMP:  39;

ASHLAND        CLOUDY    39  36  89 NE9       30.23R WCI  33
6HR MIN TEMP:  35; 6HR MAX TEMP:  40;

HAYWARD        CLOUDY    37  34  89 NE14      30.19R WCI  28
6HR MIN TEMP:  34; 6HR MAX TEMP:  37;

SIREN          MOCLDY    38  33  82 NE8       30.20R WCI  32
6HR MIN TEMP:  37; 6HR MAX TEMP:  40;

CUMBERLAND     CLOUDY    36  32  87 N8        30.16R WCI  29
RICE LAKE      CLOUDY    40  34  80 N9        30.17R WCI  33
6HR MIN TEMP:  39; 6HR MAX TEMP:  44;

CHETEK         CLOUDY    41  35  78 N3        30.16R
6HR MIN TEMP:  40; 6HR MAX TEMP:  44;

LADYSMITH      CLOUDY    38  34  84 N6        30.16R WCI  34
6HR MIN TEMP:  38; 6HR MAX TEMP:  44;

EAU CLAIRE     CLOUDY    42  34  73 NE9       30.12R
6HR MIN TEMP:  42; 6HR MAX TEMP:  48;

MENOMONIE      CLOUDY    42  33  71 N8        30.14R
6HR MIN TEMP:  42; 6HR MAX TEMP:  48;

NEW RICHMOND   PTCLDY    40  33  75 NE6       30.16R
6HR MIN TEMP:  40; 6HR MAX TEMP:  43;

OSCEOLA        MOCLDY    40  33  78 N10       30.19S WCI  33
6HR MIN TEMP:  39; 6HR MAX TEMP:  43;

$$

WIZ003>005-009-010-017-018-011300-
NORTH CENTRAL WISCONSIN

CITY           SKY/WX    TMP DP  RH WIND       PRES   REMARKS
MANITOWISH WTR CLOUDY    37  36  99 N7        30.15S WCI  31
6HR MIN TEMP:  35; 6HR MAX TEMP:  37;

ARBOR VITAE    CLOUDY    38  36  91 N7        30.14R WCI  33
6HR MIN TEMP:  37; 6HR MAX TEMP:  39;

WOODRUFF       CLOUDY    38  36  91 N7        30.14R WCI  33
6HR MIN TEMP:  37; 6HR MAX TEMP:  39;

RHINELANDER    MOSUNNY   37  33  85 VRB5      30.13R WCI  33
6HR MIN TEMP:  36; 6HR MAX TEMP:  39;

EAGLE RIVER    CLOUDY    36  34  95 N6        30.13S WCI  31
LAND O LAKES   CLOUDY    37  35  94 N8        30.15S WCI  31
6HR MIN TEMP:  35; 6HR MAX TEMP:  37;

PHILLIPS       PTSUNNY   36  34  92 N5        30.14R WCI  32
6HR MIN TEMP:  35; 6HR MAX TEMP:  39;

TOMAHAWK       CLOUDY    36  33  88 N3        30.13S
6HR MIN TEMP:  36; 6HR MAX TEMP:  40;

MEDFORD        CLOUDY    38  34  84 NE8       30.10S WCI  32
6HR MIN TEMP:  38; 6HR MAX TEMP:  43;

MERRILL        CLOUDY    39  36  87 N6        30.11S WCI  35
$$

WIZ029-030-035-036-043>047-011300-
CENTRAL WISCONSIN

CITY           SKY/WX    TMP DP  RH WIND       PRES   REMARKS
WAUSAU         MOSUNNY   44  33  65 N5        30.08S
6HR MIN TEMP:  44; 6HR MAX TEMP:  48;

MOSINEE        PTSUNNY   41  34  75 N8        30.09S
MARSHFIELD     CLOUDY    43  33  68 NE12      30.08R
6HR MIN TEMP:  43; 6HR MAX TEMP:  48;

STEVENS POINT  LGT RAIN  41  32  71 N7        30.09R
6HR MIN TEMP:  41; 6HR MAX TEMP:  45;

WAUPACA        DRIZZLE   45  36  70 N7        30.08R
6HR MIN TEMP:  44; 6HR MAX TEMP:  49;

WAUTOMA        CLOUDY    43  35  73 NE7       30.07R
6HR MIN TEMP:  42; 6HR MAX TEMP:  46;

WISC RAPIDS    CLOUDY    44  33  65 NE7       30.08S
6HR MIN TEMP:  44; 6HR MAX TEMP:  48; 6HR PCP: TRACE;

CAMP DOUGLAS     N/A     44  41  87 NE5       30.06R
6HR MIN TEMP:  44; 6HR MAX TEMP:  46; 6HR PCP: TRACE;

$$

WIZ011>013-019>022-031-037>040-048>050-011300-
NORTHEAST WISCONSIN

CITY           SKY/WX    TMP DP  RH WIND       PRES   REMARKS
ANTIGO         CLOUDY    38  34  83 N5        30.10R WCI  35
6HR MIN TEMP:  38; 6HR MAX TEMP:  42;

SHAWANO        CLOUDY    45  36  69 NE8       30.10R
6HR MIN TEMP:  45; 6HR MAX TEMP:  47;

OCONTO         CLOUDY    42  37  82 N6        30.10R
6HR MIN TEMP:  42; 6HR MAX TEMP:  44;

STURGEON BAY   CLOUDY    43  36  75 N6        30.11S
6HR MIN TEMP:  41; 6HR MAX TEMP:  45;

GREEN BAY      LGT RAIN  43  38  82 NE13      30.08R
6HR MIN TEMP:  42; 6HR MAX TEMP:  45; 6HR PCP:  0.02;

MANITOWOC      LGT RAIN  42  38  85 N9G22     30.07R
6HR MIN TEMP:  42; 6HR MAX TEMP:  43; 6HR PCP: TRACE;

APPLETON       DRIZZLE   43  34  70 NE14      30.05R
CLINTONVILLE   CLOUDY    43  32  65 N6        30.09R
OSHKOSH        CLOUDY    44  37  76 NE15G23   30.05R
6HR MIN TEMP:  43; 6HR MAX TEMP:  45; 6HR PCP:  0.01;

$$

WIZ032>034-041-042-053>061-011300-
SOUTHWEST WISCONSIN

CITY           SKY/WX    TMP DP  RH WIND       PRES   REMARKS
LA CROSSE      CLOUDY    47  35  63 N6        30.08R
6HR MIN TEMP:  44; 6HR MAX TEMP:  48; 6HR PCP: TRACE;

SPARTA         CLOUDY    45  35  66 NE5       30.08R
6HR MIN TEMP:  44; 6HR MAX TEMP:  46;

VIROQUA        CLOUDY    41  37  86 NE10      30.05R
6HR MIN TEMP:  41; 6HR MAX TEMP:  43;

BOSCOBEL       CLOUDY    46  38  73 NE6       30.05R
6HR MIN TEMP:  46; 6HR MAX TEMP:  47;

PRAIRIE DU CHI CLOUDY    45  36  70 N5        30.04R
6HR MIN TEMP:  45; 6HR MAX TEMP:  46;

PLATTEVILLE    CLOUDY    42  42  97 NE14      30.01R
6HR MIN TEMP:  42; 6HR MAX TEMP:  44;

$$

WIZ056-057-062-063-064-067-068-011300-
SOUTH CENTRAL WISCONSIN

CITY           SKY/WX    TMP DP  RH WIND       PRES   REMARKS
REEDSBURG      CLOUDY    42  37  81 NE6       30.06R
6HR MIN TEMP:  42; 6HR MAX TEMP:  44;

BARABOO/DELLS  CLOUDY    42  36  78 NE9       30.05R
6HR MIN TEMP:  42; 6HR MAX TEMP:  43;

LONE ROCK      CLOUDY    43  38  82 NE6       30.05R
6HR MIN TEMP:  43; 6HR MAX TEMP:  46;

MINERAL POINT  CLOUDY    43  41  93 NE10      30.01R FOG
MADISON        DRIZZLE   42  40  92 NE13      30.02R FOG
6HR MIN TEMP:  42; 6HR MAX TEMP:  44; 6HR PCP: TRACE;

MIDDLETON      CLOUDY    43  40  90 NE10      30.03R
6HR MIN TEMP:  43; 6HR MAX TEMP:  45;

WATERTOWN      CLOUDY    42  42 100 NE12      30.02R
6HR MIN TEMP:  42; 6HR MAX TEMP:  44;

MONROE         CLOUDY    41  41 100 NE16      29.99R
JANESVILLE     CLOUDY    45  45 100 NE15G21   29.98R FOG
$$

WIZ051-052-058>065-066-070>072-011300-
SOUTHEAST WISCONSIN

CITY           SKY/WX    TMP DP  RH WIND       PRES   REMARKS
MILWAUKEE      LGT RAIN  41  40  96 NE16G25   30.00R VSB 1
6HR MIN TEMP:  41; 6HR MAX TEMP:  44; 6HR PCP:  0.09;

WAUKESHA       RAIN      39  39 100 NE9G16    30.02R FOG     WCI  33
MILWAUKEE/TIMM RAIN      43  39  87 NE15G21   30.02S
RACINE         LGT RAIN  42  40  92 N15G22    30.01R VSB 3/4
6HR MIN TEMP:  42; 6HR MAX TEMP:  43; 6HR PCP:  0.03;

BURLINGTON     CLOUDY    42  41  99 NE15G22   29.99R FOG
6HR MIN TEMP:  41; 6HR MAX TEMP:  43;

KENOSHA        CLOUDY    43  41  93 NE12      29.99R FOG
6HR MIN TEMP:  42; 6HR MAX TEMP:  45; 6HR PCP:  0.04;

FOND DU LAC    CLOUDY    44  37  76 NE13      30.06R
6HR MIN TEMP:  44; 6HR MAX TEMP:  45; 6HR PCP: TRACE;

SHEBOYGAN      CLOUDY    42  37  82 N10       30.05R
6HR MIN TEMP:  41; 6HR MAX TEMP:  43;

WEST BEND      CLOUDY    41  37  87 N6        30.03R
JUNEAU         CLOUDY    41  38  89 N9        30.04R
6HR MIN TEMP:  40; 6HR MAX TEMP:  42;

$$

LSZ147-162-011300-
LAKE SUPERIOR

STATION/POSITION TIME  TEMP    WIND        PRES    WAVE
                       AIR SEA DIR/SP/G            HT/PER
                 (UTC) (F)     (DEG/KT/KT) (MB)    (FT/S)
W MID LAKE BUOY  1150   38 37   40/ 14/ 17 1024.4R   2/ 4
DEVILS ISLAND    1200   38      30/ 13/ 14 1024.9R
PORT WING        0940   34     100/  2/  4 1023.7
SAXON HARBOR     1100   39      50/ 11/ 13 1022.4S
$$

LMZ867-665-643>646-011300-
LAKE MICHIGAN

STATION/POSITION TIME  TEMP    WIND        PRES    WAVE
                       AIR SEA DIR/SP/G            HT/PER
                 (UTC) (F)     (DEG/KT/KT) C1F1C2F2C3F3C4F4C5F5C6F6C7F7C8M1C9M2Ca!


USA.gov is the U.S. government's official web portal to all federal, state and local government web resources and services.